Regional Weather Roundup
Issued by NWS Northern Indiana

Home | Current Version | Previous Version | Graphics & Text | Print | Product List | Glossary On
Versions: 1 2 3 4 5 6 7 8 9 10 11 12 13 14 15 16 17 18 19 20 21 22 23 24 25 26 27 28 29 30 31 32 33 34 35 36 37 38 39 40 41 42 43 44 45 46 47 48 49 50
612
ASUS43 KIWX 082310
RWRIWX

KIWX WEATHER ROUNDUP
NATIONAL WEATHER SERVICE NORTHERN INDIANA
600 PM EST MON FEB 08 2016

NOTE: "FAIR" INDICATES FEW OR NO CLOUDS BELOW 12,000 FEET WITH NO
SIGNIFICANT WEATHER AND/OR OBSTRUCTIONS TO VISIBILITY.

* THESE STATIONS ARE NOT UNDER NWS QUALITY CONTROL. THEY ALSO MAY NOT
  REPORT WEATHER SUCH AS PRECIPITATION OR FOG.

INZ001>027-090000-
NORTHERN INDIANA

CITY           SKY/WX    TMP DP  RH WIND       PRES   REMARKS
GARY*          CLOUDY    30  21  69 W12       29.73R WCI  21
VALPARAISO     CLOUDY    29  22  75 W12       29.71R WCI  19
MICHIGAN CITY* FLURRIES  30  27  86 W7        29.71R WCI  23
LAPORTE*       CLOUDY    31  27  84 W7        29.70S WCI  24
KNOX*          CLOUDY    28  23  80 W12       29.71R WCI  18
SOUTH BEND     LGT SNOW  29  25  85 W9        29.69R FOG     WCI  20
ELKHART*         N/A     30  27  86 W13       29.68R WCI  20
GOSHEN         LGT SNOW  30  27  88 W12       29.67R FOG     WCI  20
MONTICELLO*    CLOUDY    26  17  68 W12G20    29.74R WCI  15
LOGANSPORT*    SNOW      27  21  80 W12G18    29.73R VSB 1/2 WCI  16
ROCHESTER*     LGT SNOW  30  23  74 W9        29.70R WCI  22
WARSAW*        CLOUDY    30  28  93 W13       29.68R WCI  20
ANGOLA*        MOCLDY    34  28  80 W8        29.63R WCI  27
FORT WAYNE     FLURRIES  31  28  89 W15       29.67R WCI  20
HUNTINGTON*    CLOUDY    28  24  84 W9        29.68R FOG     WCI  20
PERU/GRISSOM   FLURRIES  26  23  87 W15       29.70R WCI  14
MARION*        LGT SNOW  27  20  73 W17G23    29.71R WCI  14

$$
INZ028>050-090000-
CENTRAL INDIANA

CITY           SKY/WX    TMP DP  RH WIND       PRES   REMARKS
LAFAYETTE      CLOUDY    24  17  74 W15       29.76R WCI  11
KOKOMO*        CLOUDY    27  19  74 W20       29.71R WCI  13
MUNCIE*        CLOUDY    30  25  81 NW14      29.68R WCI  19
INDIANAPOLIS   LGT SNOW  25  20  81 W17       29.74R WCI  12

$$
MIZ043>046-050>051-056>058-064>065-071>073-077>080-090000-
SOUTHWEST LOWER MICHIGAN

CITY           SKY/WX    TMP DP  RH WIND       PRES   REMARKS
BATTLE CREEK   LGT SNOW  33  29  85 W9        29.62S FOG     WCI  25
BENTON HARBOR  LGT SNOW  31  28  89 W12       29.68R VSB 3/4 WCI  22
COLDWATER*     CLOUDY    33  28  83 W12       29.63R WCI  24
HILLSDALE*     CLOUDY    34  26  73 W7        29.60R WCI  28
HOLLAND        LGT SNOW  33  31  92 NW10      29.65R FOG     WCI  25
GRAND RAPIDS   MOCLDY    36  30  79 W8        29.61R
KALAMAZOO      LGT SNOW  33  29  85 SW7       29.63S FOG     WCI  27
STURGIS*       CLOUDY    31  28  90 W8        29.64R WCI  23
THREE RIVERS*  CLOUDY    32  29  90 W8        29.65S WCI  25

$$
OHZ001>008-015>018-024>025-090000-
NORTHWEST OHIO

CITY           SKY/WX    TMP DP  RH WIND       PRES   REMARKS
DEFIANCE       CLOUDY    38  26  62 W7        29.63R
FINDLAY        CLOUDY    38  28  67 NW10      29.60S
TOLEDO EXPRESS CLOUDY    37  27  67 W14       29.61R
TOLEDO METCALF CLOUDY    37  30  75 W15       29.61R
LIMA           CLOUDY    36  28  73 NW13      29.61R

$$
AND FOR LAKE MICHIGAN COASTAL AND OPEN LAKE BUOY OBSERVATIONS

STATION/POSITION TEMP    WIND        PRES    VSBY  WAVE
                 AIR SEA DIR/SP/G                  HT/PER
                 (F)     (DEG/KT/KT) (MB)    (MI)  (FT/S)
CALUMET HARBOR    28     250/  5/ 10 1005.6R
MICHIGAN CITY     29     250/ 17/ 18   N/A
BURNS HARBOR      29     290/ 12/ 17 1006.4R
SAINT JOSEPH      31     260/ 14/ 16 1006.1R

$$
&&




USA.gov is the U.S. government's official web portal to all federal, state and local government web resources and services.